#timestamp,LO_Frequency,Hit,StdDev 
1508490015.2,286047000.8,N
1508490035.9,286047001.0,N
1508490055.7,286047000.0,N
1508490075.6,286047000.1,N
1508490095.4,286047000.7,N
1508490115.2,286047000.8,N
1508490135.1,286047000.4,N
1508490136.0,286047000.4,N
1508490155.8,286046998.2,N
1508490175.7,286046999.3,N
1508490195.5,286046998.3,N
1508490215.3,286046998.2,N
1508490235.2,286047000.3,N
1508490255.0,286047000.3,N
1508490255.9,286047000.3,N
1508490275.8,286047000.6,N
1508490295.6,286046998.1,N
1508490315.4,286047000.0,N
1508490335.3,286046999.7,N
1508490355.1,286047000.5,N
1508490375.8,286046998.6,N
1508490395.7,286046998.3,N
1508490415.5,286047000.7,N
1508490435.4,286047000.3,N
1508490455.2,286047001.2,N
1508490475.0,286047001.2,N
1508490475.9,286047001.2,N
1508490495.8,286047000.7,N
1508490515.6,286046999.9,N
1508490535.5,286047002.3,N
1508490555.3,286047002.3,N
1508490575.1,286047000.1,N
1508490595.9,286046999.9,N
1508490615.7,286047000.7,N
1508490635.5,286047000.0,N
1508490655.4,286047000.5,N
1508490675.2,286047002.2,N
1508490695.1,286047001.8,N
1508490696.0,286047001.8,N
1508490715.8,286047001.4,N
1508490735.6,286047003.8,Y
1508490755.5,286047004.0,P
1508490775.3,286047001.8,N
1508490795.2,286047001.6,N
1508490815.9,286047002.5,N
1508490835.7,286047002.6,N
1508490855.6,286047001.3,N
1508490875.4,286047002.4,N
1508490895.2,286046999.9,N
1508490915.1,286047002.2,N
1508490916.0,286047002.2,N
1508490935.8,286047001.5,N
1508490955.7,286047002.6,N
1508490975.5,286047002.4,N
1508490995.3,286047002.2,N
1508491045.2,286047004.2,E
1508491055.1,286047002.8,N
1508491075.9,286046998.2,P
1508491095.7,286046998.7,N
1508491115.5,286047000.8,N
1508491135.4,286046999.0,N
1508491155.2,286046998.9,N
1508491175.0,286047000.8,N
1508491175.9,286047000.8,N
1508491195.8,286047000.7,N
1508491215.6,286046998.6,N
1508491235.5,286047000.9,N
1508491255.3,286046998.5,N
1508491275.1,286047000.6,N
1508491295.9,286046999.8,N
1508491315.7,286047002.3,N
1508491335.5,286047002.0,N
1508491355.4,286047002.6,N
1508491375.2,286047001.8,N
1508491395.1,286047001.9,N
1508491396.0,286047001.9,N
1508491415.8,286046999.8,N
1508491435.6,286047002.6,N
1508491455.5,286047002.8,N
1508491475.3,286047001.8,N
1508491495.2,286047003.9,N
1508491515.9,286047002.5,N
1508491535.7,286047001.4,N
1508491555.6,286047001.6,N
1508491575.4,286047002.4,N
1508491595.2,286047003.8,N
1508491615.1,286047003.5,N
1508491616.0,286047003.5,N
1508491635.8,286047003.9,N
1508491655.7,286047003.3,N
1508491675.5,286047003.3,N
1508491695.3,286047004.2,N
1508491715.2,286047004.2,N
1508491735.0,286047002.1,N
1508491735.9,286047002.1,N
1508491755.7,286047001.3,N
1508491775.6,286047002.0,N
1508491795.4,286047001.3,N
1508491815.3,286047001.6,N
1508491835.1,286047002.5,N
1508491855.8,286047002.1,N
1508491875.7,286046999.9,N
1508491895.5,286047002.8,N
1508491915.4,286047002.4,N
1508491935.2,286047002.5,N
1508491955.0,286047005.2,Y
1508491955.9,286047005.2,P
1508491975.8,286047004.7,P
1508491995.6,286047009.3,P
1508492015.5,286047007.8,Y
1508492035.3,286047002.3,P
1508492055.1,286047000.6,N
1508492075.9,286046999.3,N
1508492095.7,286046997.0,N
1508492115.5,286046997.7,N
1508492135.4,286046995.3,N
1508492155.2,286046998.0,N
1508492175.1,286046995.4,N
1508492176.0,286046995.4,N
1508492195.8,286046994.9,N
1508492215.6,286046993.3,N
1508492235.5,286046993.4,N
1508492255.3,286046993.7,N
1508492275.1,286046993.5,N
1508492295.9,286046994.5,N
1508492315.7,286046994.2,N
1508492335.6,286046992.4,N
1508492355.4,286046994.2,N
1508492375.2,286046994.0,N
1508492395.1,286046993.6,N
1508492396.0,286046993.6,N
1508492415.8,286046994.2,N
1508492435.6,286046994.0,N
1508492455.5,286046993.5,N
1508492475.3,286046993.6,N
1508492495.2,286046993.9,N
1508492515.9,286046993.4,N
1508492535.7,286046995.9,N
1508492555.6,286046994.0,N
1508492575.5,286046993.7,N
1508492595.3,286046994.1,N
1508492615.1,286046994.5,N
1508492635.9,286046994.7,Y
1508492655.7,286046998.3,P
1508492675.6,286046998.2,N
1508492695.4,286046999.5,N
1508492715.2,286046998.6,N
1508492735.1,286046998.2,N
1508492736.0,286046998.2,N
1508492755.8,286047000.5,N
1508492775.7,286046998.2,N
1508492795.5,286047000.5,N
1508492815.3,286046998.5,N
1508492835.2,286047001.1,N
1508492855.9,286046998.1,N
1508492875.7,286046998.8,N
1508492895.6,286046998.8,N
1508492915.4,286046999.4,N
1508492935.3,286047000.8,N
1508492955.1,286046996.9,N
1508492956.0,286046996.9,N
1508492975.8,286046998.9,N
1508492995.7,286046999.0,N
1508493015.5,286046998.4,N
1508493035.3,286046998.2,N
1508493055.2,286046998.3,N
1508493075.0,286046996.6,N
1508493075.9,286046996.6,N
1508493095.8,286046998.3,N
1508493115.6,286047001.2,N
1508493135.4,286047000.8,N
1508493155.3,286046999.3,N
1508493175.1,286046998.7,N
1508493195.8,286046998.4,N
1508493215.7,286046999.5,N
1508493235.5,286046998.8,N
1508493255.4,286046998.2,N
1508493275.2,286047000.9,N
1508493295.0,286047000.4,N
1508493295.9,286047000.4,N
1508493315.8,286047000.9,N
1508493335.6,286047000.5,N
1508493355.4,286047000.8,N
1508493375.3,286047000.8,N
1508493395.1,286047000.8,N
1508493415.9,286047001.0,N
1508493435.7,286047000.3,N
1508493455.5,286047000.9,N
1508493475.4,286047000.4,N
1508493495.2,286047001.1,N
1508493515.0,286046998.1,N
1508493516.0,286046998.1,N
1508493535.8,286047000.5,N
1508493555.6,286047001.2,N
1508493575.5,286047000.9,N
1508493595.3,286047000.6,N
